Station THRO1 - 9063085 - Toledo, OH Image indicating link to RSS feed of recent meteorological observations for station THRO1


Conditions at THRO1 as of
(12:48 am EDT)
0448 GMT on 04/15/2024:
     

Click on the graph icon in the table below to see a time series plot of the last five days of that observation.

5-day plot - Wind Direction Wind Direction (WDIR):ENE ( 60 deg true )
5-day plot - Wind Speed Wind Speed (WSPD): 9.9 kts
5-day plot - Wind Gust Wind Gust (GST): 12.0 kts
5-day plot - Atmospheric Pressure Atmospheric Pressure (PRES):29.78 in
5-day plot - Air Temperature Air Temperature (ATMP): 54.3 °F
5-day plot - Dew Point Dew Point (DEWP): 49.3 °F
5-day plot - Wind Speed at 10 Meters Wind Speed at 10 meters (WSPD10M): 9.7 kts
5-day plot - Wind Speed at 20 Meters Wind Speed at 20 meters (WSPD20M): 9.7 kts
5-day plot -  Wind Speed, Wind Gust and Atmospheric Pressure Combined plot of Wind Speed, Gust, and Air Pressure
NOS Water Level Observation Network Water Level
Previous observations
TIME
(EDT)
5-day plot - Wind Direction
WDIR
 
5-day plot - Wind Speed
WSPD
kts
5-day plot - Wind Gust
GST
kts
5-day plot - Wave Height
WVHT
ft
5-day plot - Dominant Wave Period
DPD
sec
5-day plot - Average Wave Period
APD
sec
5-day plot - Mean Wave Direction
MWD
 
5-day plot - Atmospheric Pressure
PRES
in
5-day plot - Pressure Tendency
PTDY
in
5-day plot - Air Temperature
ATMP
°F
5-day plot - Water Temperature
WTMP
°F
5-day plot - Dew Point
DEWP
°F
5-day plot - Salinity
SAL
psu
5-day plot - Visibility
VIS
nmi
5-day plot - Tide (above MLLW)
TIDE
ft
2024-04-15 12:42 amENE 12.0 14.0----29.77- 55.0- 49.3---
2024-04-15 12:36 amENE 6.0 13.0----29.77- 55.6- 50.4---
2024-04-15 12:30 amENE 12.0 15.0----29.76- 56.1- 50.5---
2024-04-15 12:24 amENE 14.0 15.9----29.76- 57.0- 50.9---
2024-04-15 12:18 amENE 8.9 13.0----29.75- 58.3- 50.2---
2024-04-15 12:12 amENE 9.9 15.9----29.75- 60.4- 48.2---
2024-04-15 12:06 amNNW 1.0 2.9----29.74- 62.8- 41.5---
2024-04-15 12:00 amNNW 1.0 2.9----29.74+0.03 63.3- 41.2---
2024-04-14 11:54 pm- 0.0 1.9----29.74- 63.1- 41.5---
2024-04-14 11:48 pm- 0.0 1.9----29.73- 63.1- 41.9---
2024-04-14 11:42 pm- 0.0 2.9----29.73- 62.8- 41.2---
2024-04-14 11:36 pm NW 1.9 4.1----29.73- 63.3- 41.0---
2024-04-14 11:30 pmNNW 1.9 4.1----29.73- 64.9- 41.2---
2024-04-14 11:24 pm NW 4.1 4.1----29.73- 65.5- 39.7---
2024-04-14 11:18 pm NW 2.9 4.1----29.73- 66.0- 39.4---
2024-04-14 11:12 pm NW 4.1 5.1----29.73- 67.1- 38.8---
2024-04-14 11:06 pm NW 4.1 4.1----29.73- 67.1- 39.0---
2024-04-14 11:00 pm NW 4.1 5.1----29.73+0.06 67.5- 39.2---
2024-04-14 10:54 pm NW 5.1 5.1----29.73- 67.3- 39.2---
2024-04-14 10:48 pmWNW 5.1 5.1----29.73- 67.8- 39.2---
2024-04-14 10:42 pmWNW 5.1 6.0----29.73- 68.2- 39.6---
2024-04-14 10:36 pmWNW 5.1 7.0----29.73- 68.4- 39.7---
2024-04-14 10:30 pmWNW 5.1 6.0----29.73- 68.9- 39.6---
2024-04-14 10:24 pmWNW 6.0 8.0----29.73- 69.3- 39.7---
2024-04-14 10:18 pmWNW 6.0 8.9----29.73- 69.4- 40.3---
2024-04-14 10:12 pm NW 6.0 8.9----29.73- 69.1- 40.3---
2024-04-14 10:06 pm NW 6.0 8.9----29.73- 69.4- 40.6---
2024-04-14 10:00 pmWNW 7.0 8.9----29.73+0.08 69.8- 40.6---
2024-04-14 09:54 pmWNW 6.0 7.0----29.73- 69.8- 41.5---
2024-04-14 09:48 pmWNW 6.0 8.0----29.72- 70.3- 41.7---
2024-04-14 09:42 pmWNW 5.1 7.0----29.72- 70.5- 42.3---
2024-04-14 09:36 pmWNW 5.1 8.9----29.72- 70.7- 42.4---
2024-04-14 09:30 pm NW 6.0 8.0----29.72- 71.1- 42.4---
2024-04-14 09:24 pm NW 7.0 8.9----29.72- 71.6- 42.8---
2024-04-14 09:18 pm NW 8.9 12.0----29.71- 72.0- 43.3---
2024-04-14 09:12 pm NW 8.0 11.1----29.71- 72.3- 43.9---
2024-04-14 09:06 pm NW 9.9 12.0----29.71- 72.5- 44.2---
2024-04-14 09:00 pm NW 8.0 11.1----29.71+0.07 72.9- 44.6---
2024-04-14 08:54 pm NW 7.0 12.0----29.70- 73.0- 45.3---
2024-04-14 08:48 pm NW 8.0 12.0----29.70-------
2024-04-14 08:42 pm NW 8.9 15.0----29.70-------
2024-04-14 08:36 pmWNW 11.1 15.0----29.69-------
2024-04-14 08:30 pm-------29.69- 73.9- 47.1---
2024-04-14 08:24 pm-------29.68- 73.9- 47.1---
2024-04-14 08:18 pmWNW 8.9 15.9------ 74.5- 47.5---
2024-04-14 08:12 pmWNW 11.1 15.9------ 74.7- 47.1---
2024-04-14 08:06 pmWNW 12.0 17.1------ 74.8- 47.3---
2024-04-14 08:00 pmWNW 12.0 15.9----29.67+0.05 75.2- 47.1---
2024-04-14 07:54 pmWNW 9.9 14.0----29.67- 75.2- 47.5---
2024-04-14 07:48 pmWNW 9.9 14.0----29.67- 75.2- 47.3---
2024-04-14 07:42 pmWNW 9.9 15.9----29.67- 75.6- 47.3---
2024-04-14 07:36 pmWNW 11.1 19.0----29.66- 75.6- 47.3---
2024-04-14 07:30 pmWNW 13.0 15.9----29.66- 75.9- 47.5---
2024-04-14 07:24 pmWNW 9.9 17.1----29.66- 75.6- 48.6---
2024-04-14 07:18 pmWNW 14.0 22.0----29.65- 76.3- 48.6---
2024-04-14 07:12 pmWNW 13.0 21.0----29.65- 76.3- 48.9---
2024-04-14 07:06 pmWNW 15.0 21.0----29.65- 76.5- 48.9---
2024-04-14 07:00 pmWNW 9.9 18.1----29.65+0.04------
2024-04-14 06:54 pmWNW 11.1 19.0----29.65-------
2024-04-14 06:48 pmWNW 14.0 18.1----29.65- 76.8- 49.6---
2024-04-14 06:42 pmWNW 11.1 20.0----29.65- 77.0- 49.8---
2024-04-14 06:36 pmWNW 14.0 25.1----29.65- 77.2- 49.5---
2024-04-14 06:30 pmWNW 15.9 25.1----29.65- 77.2- 49.1---
2024-04-14 06:24 pmWNW 15.9 22.9----29.65- 77.4- 49.6---
2024-04-14 06:18 pmWNW 17.1 22.9----29.64- 77.4- 49.6---
2024-04-14 06:12 pm W 15.0 20.0----29.64- 77.9- 50.7---
2024-04-14 06:06 pm W 15.0 21.0----29.64- 78.1- 51.6---
2024-04-14 06:00 pm W 9.9 21.0----29.64+0.01 78.1- 51.6---
2024-04-14 05:54 pm W 11.1 21.0----29.63- 78.8- 51.8---
2024-04-14 05:48 pm W 13.0 19.0----29.63-------
2024-04-14 05:42 pm W 15.0 20.0----29.63-------
2024-04-14 05:36 pm W 17.1 22.0----29.63-------
2024-04-14 05:30 pm W 12.0 21.0----29.63-------
2024-04-14 05:24 pm W 15.0 20.0----29.63-------
2024-04-14 05:18 pm W 14.0 22.0----29.62- 78.1- 50.5---
2024-04-14 05:12 pm W 14.0 22.9----29.62- 78.1- 50.4---
2024-04-14 05:06 pm W 15.9 25.1----29.62- 78.4- 50.4---
2024-04-14 05:00 pm W 15.0 22.0----29.62+0.00 78.4- 50.7---
2024-04-14 04:54 pm W 14.0 22.0----29.62- 78.4- 50.9---
2024-04-14 04:48 pm W 15.9 21.0----29.62- 78.3- 50.5---
2024-04-14 04:42 pm W 18.1 22.9----29.62- 77.9- 50.0---
2024-04-14 04:36 pm W 15.0 21.0----29.62- 78.6- 50.4---
2024-04-14 04:30 pm W 13.0 22.9----29.62- 78.8- 50.5---
2024-04-14 04:24 pm W 15.9 22.9----29.62- 78.4- 49.6---
2024-04-14 04:18 pm W 15.9 26.0----29.62- 78.8- 50.0---
2024-04-14 04:12 pm W 17.1 25.1----29.62- 78.8- 50.4---
2024-04-14 04:06 pmWSW 13.0 19.0----29.61- 79.3- 50.7---
2024-04-14 04:00 pm W 14.0 22.0----29.61+0.00 78.4- 50.5---
2024-04-14 03:54 pm W 14.0 21.0----29.62- 78.8- 50.9---
2024-04-14 03:48 pm W 15.0 25.1----29.62- 78.4- 50.4---
2024-04-14 03:42 pm W 17.1 22.9----29.62- 77.7- 50.2---
2024-04-14 03:36 pm W 14.0 24.1----29.62- 78.3- 50.9---
2024-04-14 03:30 pm W 15.9 26.0----29.62- 78.3- 50.7---
2024-04-14 03:24 pm W 14.0 20.0----29.63- 78.6- 51.1---
2024-04-14 03:18 pm W 15.9 22.0----29.62- 78.4- 50.4---
2024-04-14 03:12 pmWNW 15.0 24.1----29.62- 78.1- 50.7---
2024-04-14 03:06 pm W 15.0 24.1----29.62- 78.1- 50.5---
2024-04-14 03:00 pm W 15.0 27.0----29.62+0.00------
2024-04-14 02:54 pm W 12.0 22.0----29.62-------
2024-04-14 02:48 pm W 15.9 22.0----29.62- 77.5- 50.5---
2024-04-14 02:42 pm W 15.9 26.0----29.62- 77.0- 50.0---
2024-04-14 02:36 pm W 12.0 19.0----29.62- 77.7- 50.7---
2024-04-14 02:30 pm W 15.9 22.9----29.62- 77.4- 50.2---
2024-04-14 02:24 pm W 14.0 24.1----29.62- 77.5- 50.2---
2024-04-14 02:18 pm W 17.1 22.9----29.62- 77.5- 49.5---
2024-04-14 02:12 pm W 13.0 22.0----29.62- 77.2- 50.2---
2024-04-14 02:06 pm W 15.9 22.9----29.62- 77.5- 50.2---
2024-04-14 02:00 pm W 15.0 24.1----29.62-0.01 77.4- 49.6---
2024-04-14 01:54 pm W 14.0 22.0----29.62- 76.6- 49.8---
2024-04-14 01:48 pm W 9.9 22.0----29.62- 76.8- 50.4---
2024-04-14 01:42 pm W 15.9 25.1----29.62- 76.3- 49.6---
2024-04-14 01:36 pm W 18.1 25.1----29.62- 76.1- 49.5---
2024-04-14 01:30 pm W 15.9 24.1----29.61- 76.1- 49.5---
2024-04-14 01:24 pm W 15.9 22.0----29.61- 75.9- 49.6---
2024-04-14 01:18 pm W 15.0 26.0----29.61- 75.9- 49.5---
2024-04-14 01:12 pm W 15.9 24.1----29.61- 75.6- 49.3---
2024-04-14 01:06 pm W 15.9 26.0----29.62- 75.4- 49.5---
2024-04-14 01:00 pm W 19.0 25.1----29.61-0.02 75.2- 49.3---
2024-04-14 12:54 pm W 15.9 31.1----29.61- 75.4- 49.3---
2024-04-14 12:48 pm W 18.1 22.9----29.61-------
2024-04-14 12:42 pm W 14.0 21.0----29.61-------
2024-04-14 12:36 pm W 17.1 22.9----29.62-------
2024-04-14 12:30 pm W 17.1 24.1----29.62-------
2024-04-14 12:24 pm W 22.0 28.9----29.62-------
2024-04-14 12:18 pm W 15.9 22.9----29.62- 73.8- 49.6---
2024-04-14 12:12 pm W 14.0 28.9----29.62- 73.4- 49.6---
2024-04-14 12:06 pm W 18.1 26.0----29.62- 72.9- 49.1---
2024-04-14 12:00 pm W 18.1 24.1----29.62-0.04 72.5- 49.1---
2024-04-14 11:54 am W 19.0 27.0----29.62- 72.0- 48.7---
2024-04-14 11:48 am W 19.0 24.1----29.62- 72.1- 48.7---
2024-04-14 11:42 am W 20.0 27.0----29.62- 72.0- 48.7---
2024-04-14 11:36 am W 13.0 20.0----29.62- 71.6- 48.7---
2024-04-14 11:30 amWSW 13.0 24.1----29.62-------
2024-04-14 11:24 am W 14.0 27.0----29.62-------
2024-04-14 11:18 am W 15.0 22.9----29.62-------
2024-04-14 11:12 am W 13.0 21.0----29.63-------
2024-04-14 11:06 am W 17.1 24.1----29.63-------
2024-04-14 11:00 amWSW 18.1 25.1----29.63-0.04 69.8- 47.5---
2024-04-14 10:54 am W 18.1 28.0----29.63- 69.4- 47.3---
2024-04-14 10:48 amWSW 18.1 22.9----29.63- 69.4- 47.3---
2024-04-14 10:42 am W 15.0 22.9----29.63- 69.3- 47.5---
2024-04-14 10:36 am W 19.0 25.1----29.63- 68.5- 46.8---
2024-04-14 10:30 am W 11.1 21.0----29.63- 68.5- 47.3---
2024-04-14 10:24 amWSW 11.1 24.1----29.63- 68.4- 47.1---
2024-04-14 10:18 amWSW 15.0 24.1----29.63- 67.6- 46.4---
2024-04-14 10:12 am W 15.9 24.1----29.64- 67.5- 46.4---
2024-04-14 10:06 am W 15.9 25.1----29.64- 66.9- 46.4---
2024-04-14 10:00 am W 20.0 25.1----29.64-0.04------
2024-04-14 09:54 amWSW 11.1 22.9----29.64-------
2024-04-14 09:48 amWSW 13.0 22.9----29.64- 65.8- 46.0---
2024-04-14 09:42 amWSW 14.0 25.1----29.64- 65.5- 45.9---
2024-04-14 09:36 amWSW 13.0 25.1----29.64- 64.8- 45.7---
2024-04-14 09:30 amWSW 13.0 22.0----29.64-------
2024-04-14 09:24 amWSW 9.9 20.0----29.65-------
2024-04-14 09:18 amWSW 12.0 17.1----29.65- 63.3- 45.7---
2024-04-14 09:12 amWSW 13.0 18.1----29.65- 62.4- 45.1---
2024-04-14 09:06 amWSW 12.0 18.1----29.65- 62.2- 45.3---
2024-04-14 09:00 amWSW 13.0 19.0----29.65- 62.1- 45.1---
2024-04-14 08:54 amWSW 8.9 22.0----29.65- 61.7- 45.1---
2024-04-14 08:48 am-------29.65- 61.5- 45.1---
2024-04-14 08:42 am-------29.66- 61.0- 44.6---
2024-04-14 08:36 am-------29.66- 60.6- 44.4---
2024-04-14 08:30 amWSW 11.1 17.1----29.66-------
2024-04-14 08:24 am SW 12.0 18.1----29.66-------
2024-04-14 08:18 amWSW 12.0 18.1----29.66- 59.4- 43.9---
2024-04-14 08:12 am SW 13.0 24.1----29.67- 59.0- 43.5---
2024-04-14 08:06 am SW 11.1 18.1----29.67- 58.5- 43.5---
2024-04-14 08:00 am SW 8.9 17.1----29.67-0.05------
2024-04-14 07:54 amWSW 11.1 18.1----29.67-------
2024-04-14 07:48 am SW 11.1 18.1----29.67-------
2024-04-14 07:42 am SW 11.1 15.9----29.67-------
2024-04-14 07:36 am SW 11.1 15.9----29.67-------
2024-04-14 07:30 am SW 9.9 18.1----29.67- 56.7- 42.4---
2024-04-14 07:24 am SW 9.9 18.1----29.67- 56.1- 42.4---
2024-04-14 07:18 am SW 8.9 17.1----29.67-------
2024-04-14 07:12 am SW 8.9 15.9----29.67-------
2024-04-14 07:06 am SW 9.9 18.1----29.67-------
2024-04-14 07:00 am SW 12.0 20.0----29.68-0.08 55.8- 41.4---
2024-04-14 06:54 am SW 9.9 17.1----29.68- 55.8- 41.4---
2024-04-14 06:48 am SW 9.9 18.1----29.68-------
2024-04-14 06:42 am SW 8.0 15.0----29.68-------
2024-04-14 06:36 am SW 8.9 14.0----29.68-------
2024-04-14 06:30 am SW 7.0 13.0----29.68- 55.0- 41.2---
2024-04-14 06:24 am SW 9.9 13.0----29.68- 55.2- 40.8---
2024-04-14 06:18 amSSW 9.9 15.9----29.68- 54.9- 40.3---
2024-04-14 06:12 amSSW 12.0 17.1----29.68- 55.0- 40.5---
2024-04-14 06:06 amSSW 12.0 15.9----29.69- 54.7- 40.3---
2024-04-14 06:00 amSSW 8.0 15.0------ 54.3- 40.5---
2024-04-14 05:54 amSSW 11.1 19.0------ 54.5- 40.3---
2024-04-14 05:48 amSSW 13.0 19.0------ 54.9- 39.9---
2024-04-14 05:42 am SW 15.0 24.1------ 54.9- 39.6---
2024-04-14 05:36 amSSW 9.9 15.9------ 54.3- 39.7---
2024-04-14 05:30 amSSW 12.0 17.1----29.71-------
2024-04-14 05:24 amSSW 13.0 15.9----29.71-------
2024-04-14 05:18 amSSW 9.9 15.0----29.71- 54.1- 39.7---
2024-04-14 05:12 amSSW 11.1 15.9----29.72- 54.1- 39.7---
2024-04-14 05:06 amSSW 14.0 18.1----29.72- 54.1- 39.6---
2024-04-14 05:00 amSSW 11.1 18.1----29.72-0.12 54.1- 39.4---
2024-04-14 04:54 am SW 9.9 15.9----29.72- 54.1- 39.4---
2024-04-14 04:48 amSSW 12.0 18.1----29.72- 54.1- 39.9---
2024-04-14 04:42 amSSW 13.0 15.9----29.73- 54.0- 39.7---
2024-04-14 04:36 amSSW 11.1 17.1----29.73- 54.0- 39.7---
2024-04-14 04:30 amSSW 9.9 17.1----29.74- 53.6- 39.7---
2024-04-14 04:24 amSSW 12.0 15.9----29.75- 53.4- 39.9---
2024-04-14 04:18 amSSW 9.9 13.0----29.75- 53.2- 40.1---
2024-04-14 04:12 amSSW 8.0 12.0----29.75- 53.1- 40.3---
2024-04-14 04:06 amSSW 8.9 12.0----29.75- 52.9- 40.3---
2024-04-14 04:00 amSSW 8.0 11.1----29.76-0.12 52.9- 40.3---
2024-04-14 03:54 amSSW 8.9 13.0----29.76- 52.9- 40.5---
2024-04-14 03:48 am S 8.0 11.1----29.77- 52.9- 40.6---
2024-04-14 03:42 am S 8.0 11.1----29.77- 52.7- 40.5---
2024-04-14 03:36 am S 8.0 11.1----29.77- 52.5- 40.5---
2024-04-14 03:30 am S 8.0 9.9----29.78- 52.2- 40.5---
2024-04-14 03:24 amSSW 7.0 8.9----29.78- 52.0- 40.3---
2024-04-14 03:18 amSSW 7.0 8.9----29.79- 52.0- 40.6---
2024-04-14 03:12 amSSW 7.0 8.0----29.80- 52.0- 40.6---
2024-04-14 03:06 amSSW 6.0 8.0----29.80- 52.0- 41.0---
2024-04-14 03:00 amSSW 8.0 9.9----29.80-0.09 52.2- 40.5---
2024-04-14 02:54 amSSW 8.0 12.0----29.81- 52.3- 40.5---
2024-04-14 02:48 amSSW 8.9 12.0----29.81- 52.2- 40.3---
2024-04-14 02:42 amSSW 9.9 12.0----29.82- 52.0- 40.3---
2024-04-14 02:36 amSSW 8.9 12.0----29.82- 51.8- 40.6---
2024-04-14 02:30 amSSW 7.0 9.9----29.82- 51.6- 40.5---
2024-04-14 02:24 am SW 7.0 8.9----29.83- 51.4- 40.5---
2024-04-14 02:18 amSSW 7.0 12.0----29.83- 51.4- 40.6---
2024-04-14 02:12 amSSW 9.9 12.0----29.83- 51.4- 40.6---
2024-04-14 02:06 amSSW 9.9 12.0----29.83- 51.6- 40.5---
2024-04-14 02:00 amSSW 11.1 14.0----29.84-0.06 51.6- 40.5---
2024-04-14 01:54 amSSW 11.1 13.0----29.85- 51.8- 40.5---
2024-04-14 01:48 amSSW 11.1 13.0----29.85- 52.2- 40.8---
2024-04-14 01:42 amSSW 8.0 13.0----29.85- 52.3- 41.0---
2024-04-14 01:36 amSSW 8.0 11.1----29.85- 52.5- 41.0---
2024-04-14 01:30 amSSW 8.0 11.1----29.86- 52.5- 41.0---
2024-04-14 01:24 amSSW 7.0 9.9----29.86- 52.3- 41.2---
2024-04-14 01:18 amSSW 8.0 11.1----29.86- 52.5- 41.2---
2024-04-14 01:12 am S 7.0 9.9----29.87- 52.7- 41.4---
2024-04-14 01:06 amSSW 8.0 9.9----29.87- 52.9- 40.8---
2024-04-14 01:00 amSSW 6.0 9.9----29.88-0.04 52.9- 40.5---
2024-04-14 12:54 amSSW 7.0 8.9----29.88- 52.3- 40.6---